SCP
-0 -0 -0 -0 -0 0 0 0 0 0 0 0 0 0 0 0 0 -0 -0 -0 -0 0 0 0 0 0 0 0 0 -0 0 0
-0 -0 -0 0 -0 0 -0 0 0 0 0 0 0 0 0 0 0 -0 -0 -0 -0 0 -0 0 0 0 -0 0 0 0 -0 -0
-0 -0 -0 -0 0 0 0 0 0 0 0 0 0 0 0 0 0 0 -0 0 0 -0 -0 -0 -0 0 0 0 0 0 0 0
-0 -0 -0 -0 -0 -0 -0 -0 0 0 0 0 0 0 0 -0 0 0 0 0 0 0 -0 -0 -0 -0 -0 0 0 0 0 0
-0 -0 -0 -0 -0 -0 0 0 0 -0 0 0 0 0 -0 -0 -0 -0 0 0 0 0 0 -0 -0 -0 0 0 -0 0 0 0
-0 -0 -0 -0 -0 0 0 0 -0 -0 -0 0 -0 -0 -0 -0 -0 0 0 0 0 0 0 0 0 -0 0 -0 0 0 0 0
-0 0 -0 -0 0 0 0 -0 -0 -0 -0 -0 -0 -0 -0 -0 -0 -0 0 0 0 0 0 0 0 0 -0 -0 -0 0 0 0
-0 0 0 -0 -0 0 -0 -0 -0 -0 -0 -0 -0 -0 -0 -0 -0 -0 -0 0 0 0 0 0 0 0 0 -0 -0 0 0 0
0 0 0 0 0 -0 -0 -0 -0 0 -0 -0 -0 0 -0 -0 -0 -0 -0 0 0 0 0 0 0 0 -0 -0 -0 0 0 0
0 0 0 0 0 -0 -0 -0 0 0 -0 -0 0 -0 0 -0 -0 -0 -0 0 0 0 0 0 0 0 -0 0 -0 -0 0 0
0 0 0 0 0 -0 -0 -0 -0 -0 -0 -0 -0 -0 0 0 0 0 0 0 0 0 0 0 0 0 0 -0 -0 -0 0 0
0 0 0 0 0 0 -0 0 0 -0 -0 -0 -0 -0 0 0 0 0 -0 -0 0 0 0 0 0 0 0 0 0 0 0 -0
0 0 0 0 0 0 0 0 0 0 -0 -0 0 0 0 0 0 0 0 0 0 0 0 0 0 0 0 0 0 0 0 0
0 0 0 0 0 0 0 -0 -0 -0 0 0 0 0 0 0 0 0 0 0 0 0 0 0 0 0 0 0 0 0 -0 0
0 0 0 0 -0 0 0 0 -0 -0 -0 0 0 0 0 0 0 0 0 0 -0 0 0 0 0 0 0 0 0 0 0 0
0 0 0 0 0 -0 0 0 0 -0 0 -0 0 0 0 0 0 0 0 0 0 0 0 0 0 0 0 0 0 0 0 0
0 0 0 0 0 0 0 0 0 0 0 0 0 0 0 0 0 0 0 0 0 0 0 0 0 -0 0 0 0 0 0 0
0 0 0 0 0 0 0 0 0 0 0 0 0 0 0 0 0 0 -0 -0 -0 0 0 0 0 0 0 0 0 0 0 0
0 0 0 0 0 0 0 0 0 0 0 0 0 0 0 0 0 0 0 0 0 0 -0 -0 -0 -0 -0 -0 -0 0 0 0
0 0 0 0 0 0 0 0 0 0 0 0 0 0 0 0 0 0 0 0 0 0 0 0 -0 0 -0 -0 -0 -0 -0 -0
Wind_Speed_500mb
59 58 55 57 61 59 58 52 47 40 35 33 28 19 13 14 14 14 17 19 16 8 3 6 13 13 7 6 15 22 25 27
64 59 58 63 61 59 55 50 43 40 37 32 22 17 11 13 18 12 27 22 10 3 2 7 9 7 4 9 12 14 17 25
64 62 64 63 59 58 54 47 45 44 39 30 24 18 13 19 26 25 25 18 12 7 2 6 11 8 9 9 6 5 6 8
65 65 65 64 63 58 52 49 49 42 36 31 18 13 14 25 28 22 21 19 12 7 1 5 11 12 9 8 9 11 9 13
71 69 67 64 62 55 52 48 46 40 34 27 17 12 21 27 33 24 21 20 16 11 2 3 9 10 10 8 15 13 14 17
71 69 64 59 56 52 50 49 43 35 32 27 22 18 20 25 36 26 24 19 16 13 4 1 5 8 9 9 14 18 21 19
66 64 62 60 54 53 52 50 42 39 36 27 22 21 22 27 32 34 26 24 19 13 5 1 2 6 7 9 12 18 22 21
64 61 64 62 57 58 54 53 44 39 37 29 24 22 25 24 25 28 26 22 20 15 10 5 4 2 2 8 9 11 20 24
64 66 66 62 62 62 57 54 51 39 34 31 29 27 22 21 21 20 20 22 21 18 14 11 7 9 5 10 11 7 13 27
69 68 67 65 66 63 57 55 49 42 38 35 30 25 25 21 19 21 20 21 22 22 20 18 11 13 11 14 15 10 9 27
69 72 68 67 70 63 54 50 49 48 39 40 35 30 25 21 18 18 17 18 21 24 24 20 15 19 18 20 21 16 14 21
74 75 68 71 73 63 48 49 49 47 41 41 37 34 28 21 16 15 9 11 19 22 23 21 21 22 25 27 25 26 25 29
66 68 68 70 70 64 52 50 54 48 39 41 42 38 28 20 18 19 12 9 7 8 12 14 19 25 25 23 20 23 33 33
43 59 62 64 64 64 56 54 57 49 42 42 44 43 33 23 16 24 21 14 10 8 4 3 9 16 20 23 18 22 35 37
35 55 62 62 58 61 61 57 60 54 42 46 46 47 38 29 21 28 25 18 12 7 5 5 9 18 22 21 21 24 34 32
18 37 54 65 62 57 62 59 58 57 47 45 45 44 41 31 25 27 28 21 12 9 16 10 11 19 28 29 30 35 42 39
26 18 33 43 55 56 58 59 59 56 54 44 51 47 41 35 27 24 28 24 18 13 20 19 16 20 33 35 34 38 40 41
36 38 32 33 44 54 59 58 60 59 56 51 48 53 47 43 37 31 29 30 26 21 19 22 22 24 35 43 43 42 43 42
51 54 44 25 21 40 52 59 61 59 62 58 52 51 55 48 41 35 30 31 33 31 27 25 26 26 25 29 36 43 46 46
35 48 51 50 28 16 40 55 59 64 62 61 61 56 54 57 50 40 35 34 35 33 31 33 35 39 39 38 35 36 36 40
Wind_Direction_500mb
161 162 161 161 159 160 163 164 165 165 162 156 147 151 169 173 174 171 161 159 160 152 74 338 323 312 295 263 253 244 245 237
162 164 162 161 161 163 164 164 166 163 161 164 161 176 177 181 168 152 163 152 151 157 342 321 338 334 288 294 289 266 271 225
167 165 164 163 162 163 162 163 161 156 163 168 179 182 188 182 167 147 152 150 176 191 221 357 3 355 340 338 10 87 90 161
169 168 168 166 165 163 162 163 166 170 174 180 179 205 205 180 174 166 172 171 169 168 191 11 10 14 15 45 68 66 81 123
173 173 173 171 170 165 165 162 167 177 185 175 193 191 181 176 171 169 176 179 171 176 282 15 21 26 36 67 73 77 102 126
176 174 174 174 173 169 167 171 172 182 182 185 179 164 169 177 180 178 175 174 171 196 251 24 27 26 44 66 90 94 96 109
187 173 173 173 171 169 173 179 178 184 180 189 177 165 173 176 185 194 191 188 181 211 223 274 328 25 62 87 100 104 104 100
192 180 179 176 176 178 177 181 179 185 190 181 168 167 165 160 166 179 190 198 208 213 222 224 207 187 92 120 121 106 111 112
198 191 184 181 182 183 183 186 188 182 180 176 167 177 173 165 170 184 191 205 209 220 223 218 217 191 186 154 142 118 115 128
203 197 193 190 188 187 189 192 184 186 183 174 170 182 183 177 188 194 200 210 213 215 217 216 219 186 178 157 150 140 122 143
204 200 196 196 194 192 192 191 185 189 192 185 182 188 189 191 195 198 201 208 214 214 212 212 208 182 174 160 149 158 147 147
201 200 197 196 196 197 197 189 187 193 199 196 190 195 192 193 193 191 188 178 189 203 206 208 199 187 176 173 167 164 162 154
196 197 197 197 196 198 196 189 189 197 203 202 199 199 192 178 176 181 168 152 161 170 191 198 199 187 178 179 172 180 171 172
188 204 199 200 200 199 195 192 194 198 202 202 202 199 194 187 180 183 164 158 169 163 153 160 189 184 178 172 164 168 168 171
169 198 203 202 201 201 199 197 199 203 207 203 200 200 198 189 183 188 176 180 190 203 184 154 172 192 181 175 166 169 175 180
121 194 203 206 204 203 204 203 204 208 210 212 204 204 205 198 193 195 193 188 213 211 187 172 170 189 184 177 172 173 176 182
88 139 183 207 214 211 208 210 211 214 215 215 216 211 211 209 199 193 197 194 208 209 186 182 182 182 188 189 193 197 188 190
76 86 113 170 197 210 212 216 218 220 220 222 222 221 219 214 209 206 208 209 212 212 208 201 197 193 195 199 205 210 216 219
64 65 77 112 165 197 205 214 221 223 226 224 225 228 226 224 221 217 217 223 222 225 227 227 230 233 230 222 222 224 224 224
74 65 62 65 78 166 203 212 219 223 229 230 227 229 230 229 229 227 225 231 233 232 234 237 235 237 243 246 247 243 240 237
Wind_Speed_850mb
59 58 55 57 61 59 58 52 47 40 35 33 28 19 13 14 14 14 17 19 16 8 3 6 13 13 7 6 15 22 25 27
64 59 58 63 61 59 55 50 43 40 37 32 22 17 11 13 18 12 27 22 10 3 2 7 9 7 4 9 12 14 17 25
64 62 64 63 59 58 54 47 45 44 39 30 24 18 13 19 26 25 25 18 12 7 2 6 11 8 9 9 6 5 6 8
65 65 65 64 63 58 52 49 49 42 36 31 18 13 14 25 28 22 21 19 12 7 1 5 11 12 9 8 9 11 9 13
71 69 67 64 62 55 52 48 46 40 34 27 17 12 21 27 33 24 21 20 16 11 2 3 9 10 10 8 15 13 14 17
71 69 64 59 56 52 50 49 43 35 32 27 22 18 20 25 36 26 24 19 16 13 4 1 5 8 9 9 14 18 21 19
66 64 62 60 54 53 52 50 42 39 36 27 22 21 22 27 32 34 26 24 19 13 5 1 2 6 7 9 12 18 22 21
64 61 64 62 57 58 54 53 44 39 37 29 24 22 25 24 25 28 26 22 20 15 10 5 4 2 2 8 9 11 20 24
64 66 66 62 62 62 57 54 51 39 34 31 29 27 22 21 21 20 20 22 21 18 14 11 7 9 5 10 11 7 13 27
69 68 67 65 66 63 57 55 49 42 38 35 30 25 25 21 19 21 20 21 22 22 20 18 11 13 11 14 15 10 9 27
69 72 68 67 70 63 54 50 49 48 39 40 35 30 25 21 18 18 17 18 21 24 24 20 15 19 18 20 21 16 14 21
74 75 68 71 73 63 48 49 49 47 41 41 37 34 28 21 16 15 9 11 19 22 23 21 21 22 25 27 25 26 25 29
66 68 68 70 70 64 52 50 54 48 39 41 42 38 28 20 18 19 12 9 7 8 12 14 19 25 25 23 20 23 33 33
43 59 62 64 64 64 56 54 57 49 42 42 44 43 33 23 16 24 21 14 10 8 4 3 9 16 20 23 18 22 35 37
35 55 62 62 58 61 61 57 60 54 42 46 46 47 38 29 21 28 25 18 12 7 5 5 9 18 22 21 21 24 34 32
18 37 54 65 62 57 62 59 58 57 47 45 45 44 41 31 25 27 28 21 12 9 16 10 11 19 28 29 30 35 42 39
26 18 33 43 55 56 58 59 59 56 54 44 51 47 41 35 27 24 28 24 18 13 20 19 16 20 33 35 34 38 40 41
36 38 32 33 44 54 59 58 60 59 56 51 48 53 47 43 37 31 29 30 26 21 19 22 22 24 35 43 43 42 43 42
51 54 44 25 21 40 52 59 61 59 62 58 52 51 55 48 41 35 30 31 33 31 27 25 26 26 25 29 36 43 46 46
35 48 51 50 28 16 40 55 59 64 62 61 61 56 54 57 50 40 35 34 35 33 31 33 35 39 39 38 35 36 36 40
Wind_Direction_850mb
161 162 161 161 159 160 163 164 165 165 162 156 147 151 169 173 174 171 161 159 160 152 74 338 323 312 295 263 253 244 245 237
162 164 162 161 161 163 164 164 166 163 161 164 161 176 177 181 168 152 163 152 151 157 342 321 338 334 288 294 289 266 271 225
167 165 164 163 162 163 162 163 161 156 163 168 179 182 188 182 167 147 152 150 176 191 221 357 3 355 340 338 10 87 90 161
169 168 168 166 165 163 162 163 166 170 174 180 179 205 205 180 174 166 172 171 169 168 191 11 10 14 15 45 68 66 81 123
173 173 173 171 170 165 165 162 167 177 185 175 193 191 181 176 171 169 176 179 171 176 282 15 21 26 36 67 73 77 102 126
176 174 174 174 173 169 167 171 172 182 182 185 179 164 169 177 180 178 175 174 171 196 251 24 27 26 44 66 90 94 96 109
187 173 173 173 171 169 173 179 178 184 180 189 177 165 173 176 185 194 191 188 181 211 223 274 328 25 62 87 100 104 104 100
192 180 179 176 176 178 177 181 179 185 190 181 168 167 165 160 166 179 190 198 208 213 222 224 207 187 92 120 121 106 111 112
198 191 184 181 182 183 183 186 188 182 180 176 167 177 173 165 170 184 191 205 209 220 223 218 217 191 186 154 142 118 115 128
203 197 193 190 188 187 189 192 184 186 183 174 170 182 183 177 188 194 200 210 213 215 217 216 219 186 178 157 150 140 122 143
204 200 196 196 194 192 192 191 185 189 192 185 182 188 189 191 195 198 201 208 214 214 212 212 208 182 174 160 149 158 147 147
201 200 197 196 196 197 197 189 187 193 199 196 190 195 192 193 193 191 188 178 189 203 206 208 199 187 176 173 167 164 162 154
196 197 197 197 196 198 196 189 189 197 203 202 199 199 192 178 176 181 168 152 161 170 191 198 199 187 178 179 172 180 171 172
188 204 199 200 200 199 195 192 194 198 202 202 202 199 194 187 180 183 164 158 169 163 153 160 189 184 178 172 164 168 168 171
169 198 203 202 201 201 199 197 199 203 207 203 200 200 198 189 183 188 176 180 190 203 184 154 172 192 181 175 166 169 175 180
121 194 203 206 204 203 204 203 204 208 210 212 204 204 205 198 193 195 193 188 213 211 187 172 170 189 184 177 172 173 176 182
88 139 183 207 214 211 208 210 211 214 215 215 216 211 211 209 199 193 197 194 208 209 186 182 182 182 188 189 193 197 188 190
76 86 113 170 197 210 212 216 218 220 220 222 222 221 219 214 209 206 208 209 212 212 208 201 197 193 195 199 205 210 216 219
64 65 77 112 165 197 205 214 221 223 226 224 225 228 226 224 221 217 217 223 222 225 227 227 230 233 230 222 222 224 224 224
74 65 62 65 78 166 203 212 219 223 229 230 227 229 230 229 229 227 225 231 233 232 234 237 235 237 243 246 247 243 240 237